This demonstration page uses our WeatherBlox Daily Observations layout. Learn more.

Left ArrowRight Arrow

39.08367, -84.50855

Hourly Observations for April 23, 2019

Temp ( °F °C ) Dew Point ( °F °C ) Humidity (%) Winds ( mph kmh ) Pressure ( in mb ) Visibility ( mi km ) Precip ( " mm )
12:53 am 00:53 Clear 53 11.7 50 10 89 89 Calm 30.05 1018 10 16.0934 0 0
1:53 am 01:53 Clear 52 11.1 50 10 93 93 Calm 30.04 1017 10 16.0934 0 0
2:53 am 02:53 Clear 50 10 48 8.9 93 93 Calm 30.02 1017 10 16.0934 0 0
3:53 am 03:53 Clear 50 10 47 8.3 89 89 Calm 30.01 1016 10 16.0934 0 0
4:53 am 04:53 Clear with Mist and Fog 48 8.9 46 7.8 93 93 Calm 29.99 1016 1.75 2.816345 0 0
5:03 am 05:03 Clear with Mist and Fog 49 9.4 47 8.3 93 93 Calm 30.01 1016 4 6.43736 0 0
5:53 am 05:53 Clear 49 9.4 48 8.9 97 97 Calm 29.98 1015 10 16.0934 0 0
6:53 am 06:53 Sunny 49 9.4 47 8.3 93 93 Calm 29.98 1015 10 16.0934 0 0
7:53 am 07:53 Sunny 53 11.7 49 9.4 86 86 Calm 29.99 1016 10 16.0934 0 0
8:53 am 08:53 Sunny 59 15 51 10.6 75 75 Calm 29.98 1015 10 16.0934 0 0
9:53 am 09:53 Mostly Sunny 69 20.6 54 12.2 59 59 WSW 6 9 29.98 1015 10 16.0934 0 0
10:53 am 10:53 Partly Cloudy 72 22.2 55 12.8 55 55 WSW 10 17 29.97 1015 10 16.0934 0 0
11:53 am 11:53 Cloudy 72 22.2 57 13.9 59 59 WSW 14 22 29.97 1015 10 16.0934 0 0
12:53 pm 12:53 Mostly Sunny 75 23.9 59 15 58 58 SW 14 22 29.96 1014 10 16.0934 0 0
1:53 pm 13:53 Mostly Cloudy 75 23.9 59 15 58 58 WSW 16 26 29.94 1014 10 16.0934 0 0
2:53 pm 14:53 Mostly Cloudy 77 25 59 15 54 54 WSW 15 24 29.93 1014 10 16.0934 0 0
3:53 pm 15:53 Mostly Cloudy 76 24.4 58 14.4 54 54 WNW 17 28 29.92 1013 10 16.0934 0 0
4:53 pm 16:53 Mostly Cloudy 75 23.9 58 14.4 55 55 WNW 13 20 29.92 1013 10 16.0934 0 0
5:53 pm 17:53 Mostly Cloudy 75 23.9 58 14.4 55 55 WNW 8 13 29.93 1013 10 16.0934 0 0
6:53 pm 18:53 Partly Cloudy 72 22.2 58 14.4 61 61 NNW 12 19 29.93 1014 10 16.0934 0 0
7:53 pm 19:53 Sunny 67 19.4 55 12.8 66 66 N 10 17 29.95 1014 10 16.0934 0 0
8:53 pm 20:53 Clear 63 17.2 53 11.7 70 70 NNW 10 17 29.98 1015 10 16.0934 0 0
9:53 pm 21:53 Clear 61 16.1 51 10.6 70 70 NNW 8 13 30 1016 10 16.0934 0 0
10:53 pm 22:53 Clear 58 14.4 50 10 75 75 N 6 9 30.01 1016 10 16.0934 0 0
11:53 pm 23:53 Clear 56 13.3 49 9.4 77 77 VRB 6 9 30.01 1016 10 16.0934 0 0

Powered by AerisWeather